Simultaneous Nadir Overpasses (SNOs) Predictions

Prediction of SNOs between AQUA and METOP-A Satellite Orbit:

Table of predicted SNOs for the next 14.0 days since TLE Epoch: 10/16/2021
Index Date (AQUA) Time (AQUA) Lat,Lon (AQUA) SZA (AQUA ) Date (METOP-A) Time (METOP-A) Lat,Lon (METOP-A) SZA (METOP-A ) Distance(km) Time Diff (sec)
1 10/18/2021 10:41:43 77.83, 1.69 87.91 10/18/2021 10:40:54 77.82, 1.62 87.91 2.54 49
2 10/18/2021 11:31:10 -77.88, 169.14 92.03 10/18/2021 11:31:34 -77.88, 169.24 92.04 2.35 24
3 10/21/2021 06:15:57 77.84, 68.13 88.91 10/21/2021 06:15:13 77.84, 68.09 88.93 1.27 44
4 10/21/2021 07:05:24 -77.88,-124.42 91.03 10/21/2021 07:05:54 -77.87,-124.48 91.04 1.96 30
5 10/24/2021 01:50:11 77.85, 134.51 89.91 10/24/2021 01:49:32 77.87, 134.55 89.94 2.19 39
6 10/24/2021 02:39:38 -77.89, -58.03 90.03 10/24/2021 02:40:13 -77.89, -58.02 90.04 0.37 35
7 10/26/2021 21:24:24 77.87,-159.15 90.90 10/26/2021 21:23:51 77.85,-159.21 90.89 3.25 33
8 10/26/2021 22:13:51 -77.92, 8.30 89.04 10/26/2021 22:14:31 -77.91, 8.43 89.06 3.02 40
9 10/29/2021 16:58:37 77.87, -92.66 91.83 10/29/2021 16:58:10 77.87, -92.77 91.84 2.46 27



Historial Predications of SNOs between AQUA and METOP-A
